Location: Pardubice
(50.0330°N, 15.7830°E)
Time: 20:48:46
(UTC+02:00)

S-56A Canister/Altair - Pass Details

Date: 12 August 2025
Orbit: 633 x 2484 km, 38.9° (Epoch: 12 May)

Event Time Altitude Azimuth Distance (km) Brightness Sun altitude
Rises 11:17:53 0° 226° (SW) 5,861 12.1 49.0°
Reaches altitude 10° 11:22:32 10° 218° (SW) 4,635 11.7 49.4°
Maximum altitude 11:32:45 32° 162° (SSE) 2,606 11.8 50.4°
Drops below altitude 10° 11:40:14 10° 103° (ESE) 3,358 11.4 51.1°
Sets 11:43:02 0° 94° (E) 4,085 11.5 51.3°
